Regional Weather Roundup
Issued by NWS

Home | Current Version | Previous Version | Text Only | Print | Product List | Glossary Off
Versions: 1 2 3 4 5 6 7 8 9 10 11 12 13 14 15 16 17 18 19 20 21 22 23 24 25 26 27 28 29 30 31 32 33 34 35 36 37 38 39 40 41 42 43 44 45 46 47 48 49 50

000
ASUS43 KMKX 272121
RWRWI

WISCONSIN REGIONAL WEATHER ROUNDUP
NATIONAL WEATHER SERVICE MILWAUKEE/SULLIVAN WI
300 PM CST FRI FEB 27 2015

NOTE: "FAIR" INDICATES FEW OR NO CLOUDS BELOW 12,000 FEET WITH NO
SIGNIFICANT WEATHER AND/OR OBSTRUCTIONS TO VISIBILITY.

WIZ001-002-006>008-014>016-023>028-272200-
NORTHWEST WISCONSIN

CITY           SKY/WX    TMP DP  RH WIND       PRES   REMARKS
SUPERIOR ARPT  SUNNY     19  -4  35 SW9G17    30.43F WCI   9
ASHLAND        SUNNY     18  -5  36 SW12      30.43S WCI   5
HAYWARD        SUNNY     15  -7  37 SW8       30.43S WCI   4
SIREN          SUNNY     16  -5  40 W10       30.47S WCI   3
CUMBERLAND     SUNNY     14  -4  44 SW7       30.45S WCI   4
RICE LAKE      SUNNY     14  -4  44 SW8       30.48F WCI   3
CHETEK         SUNNY     14  -4  45 SW7       30.48F WCI   4
LADYSMITH      SUNNY     15  -6  38 W9        30.46S WCI   4
EAU CLAIRE     SUNNY     12  -1  56 SW10      30.51F WCI  -1
MENOMONIE      SUNNY     15  -1  49 W8        30.51F WCI   4
NEW RICHMOND   SUNNY     16  -1  47 SW7       30.49S WCI   6
OSCEOLA        SUNNY     18  -1  43 W7        30.52F WCI   8
$$

WIZ003>005-009-010-017-018-272200-
NORTH CENTRAL WISCONSIN

CITY           SKY/WX    TMP DP  RH WIND       PRES   REMARKS
MANITOWISH WTR SUNNY     15  -6  39 W10       30.35S WCI   2
ARBOR VITAE    SUNNY     17  -4  39 W6        30.35S WCI   8
WOODRUFF       SUNNY     17  -4  39 W6        30.35S WCI   8
RHINELANDER    SUNNY     16  -4  41 W12G18    30.37R WCI   3
EAGLE RIVER    SUNNY     16  -8  33 W10       30.34S WCI   4
LAND O LAKES   SUNNY     19  -6  33 W8        30.34R WCI   8
PHILLIPS       SUNNY     15  -4  43 SW10      30.38S WCI   2
TOMAHAWK       SUNNY     17  -7  35 CALM      30.40R
MEDFORD        SUNNY     10  -4  52 SW8       30.43S WCI  -2
MERRILL        SUNNY     14  -4  45 SW10      30.43S WCI   1
$$

WIZ029-030-035-036-043>047-272200-
CENTRAL WISCONSIN

CITY           SKY/WX    TMP DP  RH WIND       PRES   REMARKS
WAUSAU         SUNNY     12  -4  48 SW13      30.44S WCI  -3
MOSINEE        SUNNY     12  -4  48 W8        30.46F WCI   1
MARSHFIELD     SUNNY     13  -4  46 SW10      30.46S WCI   0
STEVENS POINT  SUNNY     13  -7  41 W6        30.47F WCI   4
WAUPACA        SUNNY     21  -4  34 W10       30.50S WCI   9
WAUTOMA        SUNNY     18  -3  39 W8G18     30.51S WCI   8
WISC RAPIDS    SUNNY     16  -7  35 W12       30.49F WCI   3
CAMP DOUGLAS   SUNNY     16  -2  45 W9        30.51F WCI   4
$$

WIZ011>013-019>022-031-037>040-048>050-272200-
NORTHEAST WISCONSIN

CITY           SKY/WX    TMP DP  RH WIND       PRES   REMARKS
ANTIGO         SUNNY     11  -4  51 SW12      30.40R WCI  -3
SHAWANO        SUNNY     19  -5  33 W13       30.48S WCI   7
OCONTO         SUNNY     19  -2  40 W12       30.47S WCI   6
STURGEON BAY   SUNNY     16   0  48 SW14G20   30.48F WCI   1
GREEN BAY      SUNNY     18   1  47 SW14      30.49S WCI   4
MANITOWOC      SUNNY     18   1  47 W14G20      N/A  WCI   4
APPLETON       SUNNY     18  -2  41 W13       30.49S WCI   4
CLINTONVILLE   SUNNY     18  -6  35 W8        30.48S WCI   7
OSHKOSH        SUNNY     17  -2  43 W10       30.50S WCI   5
$$

WIZ032>034-041-042-053>061-272200-
SOUTHWEST WISCONSIN

CITY           SKY/WX    TMP DP  RH WIND       PRES   REMARKS
LA CROSSE      SUNNY     17  -4  39 N6        30.56F WCI   9
SPARTA         SUNNY     16  -5  39 W8        30.54S WCI   5
VIROQUA        SUNNY     13  -4  46 SW9       30.50S WCI   1
BOSCOBEL       SUNNY     15  -3  44 SW10      30.58S WCI   2
PRAIRIE DU CHI SUNNY     12  -6  44 W9        30.59S WCI   0
PLATTEVILLE    SUNNY     12  -3  50 S9        30.55S WCI  -1
$$

WIZ056-057-062-063-064-067-068-272200-
SOUTH CENTRAL WISCONSIN

CITY           SKY/WX    TMP DP  RH WIND       PRES   REMARKS
REEDSBURG      SUNNY     15  -2  45 W8        30.52S WCI   5
BARABOO/DELLS  SUNNY     15  -4  42 W9        30.51F WCI   3
LONE ROCK      SUNNY     16  -4  41 W7        30.56S WCI   6
MINERAL POINT  SUNNY     14  -4  44 W8        30.53S WCI   3
MADISON        SUNNY     15  -4  42 VRB7      30.53F WCI   5
MIDDLETON      SUNNY     19  -5  35 SW6       30.53S WCI  10
WATERTOWN      SUNNY     16  -2  45 SW5       30.54R WCI   9
MONROE         SUNNY     14  -2  48 W10       30.54S WCI   1
JANESVILLE     SUNNY     14  -4  44 W10       30.57R WCI   1
$$

WIZ051-052-058>065-066-070>072-272200-
SOUTHEAST WISCONSIN

CITY           SKY/WX    TMP DP  RH WIND       PRES   REMARKS
MILWAUKEE      SUNNY     17  -7  34 W10       30.55S WCI   5
WAUKESHA       SUNNY     12  -6  44 SW10      30.54S WCI  -1
MILWAUKEE/TIMM SUNNY     18  -8  32 W10G17    30.55S WCI   6
RACINE         SUNNY     14  -5  42 W12       30.58R WCI   0
BURLINGTON     SUNNY     13  -5  43 W10       30.57S WCI   0
KENOSHA        SUNNY     13  -2  51 W13       30.57R WCI  -2
FOND DU LAC    SUNNY     17  -2  43 W9        30.51S WCI   6
SHEBOYGAN      SUNNY     16  -1  47 W14       30.52R WCI   2
WEST BEND      SUNNY     18  -4  38 SW9       30.52R WCI   6
JUNEAU         SUNNY     15  -3  46 SW10G16   30.53S WCI   2
$$

LSZ147-162-272200-
LAKE SUPERIOR

STATION/POSITION TIME  TEMP    WIND        PRES    WAVE
                       AIR SEA DIR/SP/G            HT/PER
                 (UTC) (F)     (DEG/KT/KT) (MB)    (FT/S)
DEVILS ISLAND    2100   15     230/ 18/ 21 1031.2F
PORT WING        2000   16     270/  9/ 13 1030.8
SAXON HARBOR     2000   17     270/  5/ 10 1030.1
$$

LMZ867-665-643>646-272200-
LAKE MICHIGAN

STATION/POSITION TIME  TEMP    WIND        PRES    WAVE
                       AIR SEA DIR/SP/G            HT/PER
                 (UTC) (F)     (DEG/KT/KT) (MB)    (FT/S)
NORTHPORT PIER   2031   17     270/  4/ 14 1031.5S
SISTER BAY       2028          210/ 13/ 16   N/A
KEWAUNEE LAKESHO 2000   15     230/ 11/ 15 1031.6F
SHEBOYGAN LAKESH 2100   17     260/  9/ 12 1035.4R
PORT WASHINGTON  2040   19     260/  7/ 11 1034.9R
MILWAUKEE LAKESH 2100   17     240/ 11/ 13   N/A
KENOSHA   LAKESH 2100   14     260/ 10/ 15 1035.2S
$$

TC  - TEMPERATURE IN CELSIUS
VSB - VISIBILITY IN STATUTE MILES
WCI - WIND CHILL INDEX
HX  - HEAT INDEX



USA.gov is the U.S. government's official web portal to all federal, state and local government web resources and services.